GW6640 Weather Reports


time (UTC)temp
C
wind
direction
speed
KPH
gust
KPH
rain 1hr
cm
rain 24hr
cm
rain mn
cm
humidity
%
barometer
mb
20260906233504 23 336 11.3 19.3 0.00 0.00 0.00 33 1026.5
20260906233006 23 323 6.4 17.7 0.00 0.00 0.00 35 1026.6
20260906232507 22 306 6.4 17.7 0.00 0.00 0.00 36 1026.6
20260906232006 22 277 8.0 12.9 0.00 0.00 0.00 35 1026.7
20260906231516 22 251 4.8 9.7 0.00 0.00 0.00 36 1026.7
20260906231007 22 224 4.8 14.5 0.00 0.00 0.00 35 1026.7
20260906230507 22 227 4.8 14.5 0.00 0.00 0.00 34 1026.8
20260906230021 22 221 9.7 12.9 0.00 0.00 0.00 34 1026.9
20260906225514 22 273 6.4 12.9 0.00 0.00 0.00 33 1026.9
20260906225012 22 267 8.0 16.1 0.00 0.00 0.00 33 1026.9
20260906224527 23 267 9.7 17.7 0.00 0.00 0.00 33 1026.9
20260906224017 23 256 8.0 17.7 0.00 0.00 0.00 34 1026.9
20260906223516 23 248 9.7 12.9 0.00 0.00 0.00 34 1026.9
20260906223012 23 313 4.8 16.1 0.00 0.00 0.00 33 1026.9
20260906222503 22 273 8.0 16.1 0.00 0.00 0.00 33 1027.0
20260906222004 22 238 8.0 14.5 0.00 0.00 0.00 33 1027.1
20260906221513 22 235 4.8 17.7 0.00 0.00 0.00 34 1027.2
20260906221008 22 168 8.0 17.7 0.00 0.00 0.00 34 1027.1
20260906220507 22 188 6.4 19.3 0.00 0.00 0.00 34 1027.2
20260906220032 22 182 4.8 19.3 0.00 0.00 0.00 33 1027.2
20260906215508 22 150 9.7 17.7 0.00 0.00 0.00 34 1027.2
20260906215008 22 196 1.6 14.5 0.00 0.00 0.00 32 1027.3
20260906214524 23 160 8.0 14.5 0.00 0.00 0.00 31 1027.3
20260906214011 23 225 4.8 16.1 0.00 0.00 0.00 33 1027.3
20260906213514 23 166 6.4 16.1 0.00 0.00 0.00 34 1027.3
20260906213030 23 211 9.7 16.1 0.00 0.00 0.00 32 1027.3
20260906212516 23 156 8.0 16.1 0.00 0.00 0.00 32 1027.3
20260906212015 23 200 4.8 9.7 0.00 0.00 0.00 33 1027.3
20260906211508 23 71 1.6 12.9 0.00 0.00 0.00 35 1027.3
20260906211005 23 175 6.4 17.7 0.00 0.00 0.00 32 1027.3
20260906210512 23 211 9.7 17.7 0.00 0.00 0.00 32 1027.3
20260906210016 23 206 1.6 16.1 0.00 0.00 0.00 34 1027.3
20260906205509 23 205 9.7 16.1 0.00 0.00 0.00 32 1027.4
20260906205007 23 193 4.8 14.5 0.00 0.00 0.00 33 1027.4
20260906204519 23 184 4.8 16.1 0.00 0.00 0.00 32 1027.5
20260906204011 23 206 6.4 16.1 0.00 0.00 0.00 31 1027.4
20260906203513 23 185 6.4 20.9 0.00 0.00 0.00 32 1027.5
20260906203026 23 242 6.4 20.9 0.00 0.00 0.00 31 1027.6
20260906202519 23 195 9.7 22.5 0.00 0.00 0.00 33 1027.7
20260906202015 23 203 6.4 22.5 0.00 0.00 0.00 33 1027.7
20260906201534 22 246 6.4 16.1 0.00 0.00 0.00 33 1027.7
20260906201016 22 221 8.0 16.1 0.00 0.00 0.00 33 1027.7
20260906200505 22 249 4.8 16.1 0.00 0.00 0.00 35 1027.8
20260906200011 22 254 11.3 16.1 0.00 0.00 0.00 34 1027.9
20260906195507 22 266 6.4 16.1 0.00 0.00 0.00 34 1027.9
20260906195009 22 238 6.4 16.1 0.00 0.00 0.00 34 1027.9
20260906194520 22 242 6.4 14.5 0.00 0.00 0.00 34 1027.9
20260906194009 22 304 4.8 14.5 0.00 0.00 0.00 34 1028.0
20260906193512 22 250 6.4 16.1 0.00 0.00 0.00 33 1028.0
20260906193026 22 289 1.6 17.7 0.00 0.00 0.00 32 1028.0
20260906192513 23 247 9.7 22.5 0.00 0.00 0.00 32 1028.1
20260906192013 23 249 12.9 22.5 0.00 0.00 0.00 33 1028.1
20260906191529 23 186 11.3 20.9 0.00 0.00 0.00 34 1028.1
20260906191014 22 244 11.3 19.3 0.00 0.00 0.00 33 1028.1
20260906190515 22 259 8.0 16.1 0.00 0.00 0.00 35 1028.2
20260906190032 22 277 8.0 19.3 0.00 0.00 0.00 35 1028.3
20260906185520 22 238 6.4 19.3 0.00 0.00 0.00 35 1028.3
20260906185005 22 250 11.3 16.1 0.00 0.00 0.00 35 1028.2
20260906184517 22 194 4.8 20.9 0.00 0.00 0.00 35 1028.2
20260906184006 22 217 8.0 24.1 0.00 0.00 0.00 33 1028.3
20260906183508 22 252 14.5 24.1 0.00 0.00 0.00 32 1028.3
20260906183028 22 313 4.8 12.9 0.00 0.00 0.00 33 1028.3
20260906182513 22 308 4.8 20.9 0.00 0.00 0.00 31 1028.4
20260906182016 23 329 9.7 20.9 0.00 0.00 0.00 30 1028.5
20260906181551 23 233 11.3 17.7 0.00 0.00 0.00 30 1028.4
20260906181015 23 329 3.2 19.3 0.00 0.00 0.00 31 1028.5
20260906180513 23 311 6.4 19.3 0.00 0.00 0.00 32 1028.5
20260906180032 23 253 6.4 19.3 0.00 0.00 0.00 30 1028.6
20260906175519 23 259 11.3 24.1 0.00 0.00 0.00 31 1028.8
20260906175018 23 192 6.4 24.1 0.00 0.00 0.00 31 1029.1
20260906174536 22 272 9.7 24.1 0.00 0.00 0.00 32 1029.0
20260906174008 22 344 6.4 14.5 0.00 0.00 0.00 32 1029.0
20260906173507 22 237 3.2 14.5 0.00 0.00 0.00 35 1029.1
20260906173025 22 246 4.8 12.9 0.00 0.00 0.00 32 1029.2
20260906172512 22 247 4.8 14.5 0.00 0.00 0.00 33 1029.3
20260906172010 22 172 8.0 16.1 0.00 0.00 0.00 33 1029.3
20260906171532 22 271 9.7 16.1 0.00 0.00 0.00 33 1029.2
20260906171013 22 200 6.4 22.5 0.00 0.00 0.00 33 1029.2
20260906170515 21 265 6.4 22.5 0.00 0.00 0.00 32 1029.4
20260906170030 21 321 8.0 22.5 0.00 0.00 0.00 33 1029.4
20260906165519 21 282 8.0 22.5 0.00 0.00 0.00 33 1029.4
20260906165014 21 265 6.4 17.7 0.00 0.00 0.00 34 1029.3
20260906164534 21 207 9.7 17.7 0.00 0.00 0.00 32 1029.4
20260906164017 21 161 3.2 12.9 0.00 0.00 0.00 33 1029.4
20260906163517 21 257 3.2 14.5 0.00 0.00 0.00 35 1029.4
20260906163022 21 271 8.0 14.5 0.00 0.00 0.00 33 1029.3
20260906162510 21 207 4.8 12.9 0.00 0.00 0.00 33 1029.2
20260906162010 21 173 1.6 9.7 0.00 0.00 0.00 35 1029.2
20260906161529 21 165 3.2 16.1 0.00 0.00 0.00 35 1029.2
20260906161013 20 227 4.8 16.1 0.00 0.00 0.00 34 1029.3
20260906160513 20 248 8.0 14.5 0.00 0.00 0.00 34 1029.1
20260906160032 20 246 6.4 11.3 0.00 0.00 0.00 35 1029.0
20260906155516 20 221 6.4 12.9 0.00 0.00 0.00 34 1029.1
20260906155017 20 223 6.4 12.9 0.00 0.00 0.00 34 1029.0
20260906154530 20 203 4.8 12.9 0.00 0.00 0.00 35 1029.1
20260906154016 19 246 4.8 11.3 0.00 0.00 0.00 35 1029.2
20260906153516 18 244 6.4 14.5 0.00 0.00 0.00 36 1029.2
20260906153034 18 220 6.4 14.5 0.00 0.00 0.00 36 1029.2
20260906152515 18 222 4.8 8.0 0.00 0.00 0.00 39 1029.2
20260906152021 17 170 1.6 3.2 0.00 0.00 0.00 44 1029.2
20260906151517 17 281 1.6 3.2 0.00 0.00 0.00 49 1029.2
20260906151012 17 281 0.0 3.2 0.00 0.00 0.00 48 1029.0
20260906150512 17 281 1.6 3.2 0.00 0.00 0.00 51 1029.1
20260906150031 16 302 0.0 3.2 0.00 0.00 0.00 52 1029.0
20260906145513 16 38 0.0 3.2 0.00 0.00 0.00 54 1028.9
20260906145016 16 38 1.6 3.2 0.00 0.00 0.00 50 1028.9
20260906144531 15 38 1.6 3.2 0.00 0.00 0.00 54 1028.8
20260906144015 15 38 1.6 4.8 0.00 0.00 0.00 1028.8
20260906143519 14 38 0.0 4.8 0.00 0.00 0.00 1028.9
20260906143033 13 341 0.0 4.8 0.00 0.00 0.00 59 1028.9
20260906142516 13 5 1.6 3.2 0.00 0.00 0.00 59 1029.0
20260906142016 12 360 0.0 3.2 0.00 0.00 0.00 60 1029.0
20260906141532 12 17 0.0 3.2 0.00 0.00 0.00 62 1029.0
20260906141024 11 344 1.6 3.2 0.00 0.00 0.00 62 1029.0
20260906140519 11 26 0.0 3.2 0.00 0.00 0.00 64 1029.1
20260906140024 10 16 1.6 3.2 0.00 0.00 0.00 63 1029.1
20260906135511 10 40 3.2 3.2 0.00 0.00 0.00 63 1029.2
20260906135012 10 352 1.6 4.8 0.00 0.00 0.00 62 1029.1
20260906134527 10 31 1.6 4.8 0.00 0.00 0.00 62 1029.1
20260906134016 9 26 1.6 3.2 0.00 0.00 0.00 62 1029.2
20260906133515 9 27 1.6 3.2 0.00 0.00 0.00 62 1029.2
20260906133036 9 5 1.6 3.2 0.00 0.00 0.00 62 1029.0
20260906132515 9 5 0.0 3.2 0.00 0.00 0.00 62 1028.8
20260906132017 9 41 0.0 4.8 0.00 0.00 0.00 62 1028.7
20260906131531 8 37 1.6 4.8 0.00 0.00 0.00 62 1028.5
20260906131017 8 5 1.6 4.8 0.00 0.00 0.00 62 1028.5
20260906130516 8 360 3.2 4.8 0.00 0.00 0.00 62 1028.4
20260906130035 8 22 1.6 4.8 0.00 0.00 0.00 62 1028.4
20260906125516 8 5 1.6 3.2 0.00 0.00 0.00 62 1028.4
20260906125013 8 5 1.6 3.2 0.00 0.00 0.00 62 1028.5
20260906124526 8 5 1.6 3.2 0.00 0.00 0.00 61 1028.4
20260906124007 8 30 1.6 4.8 0.00 0.00 0.00 61 1028.3
20260906123508 8 360 1.6 4.8 0.00 0.00 0.00 60 1028.2
20260906123013 8 9 1.6 3.2 0.00 0.00 0.00 60 1028.1
20260906122504 8 32 3.2 3.2 0.00 0.00 0.00 59 1028.1
20260906122003 8 24 0.0 3.2 0.00 0.00 0.00 59 1028.1
20260906121512 8 360 1.6 4.8 0.00 0.00 0.00 59 1028.1
20260906121004 9 30 1.6 4.8 0.00 0.00 0.00 58 1028.1
20260906120510 9 24 0.0 1.6 0.00 0.00 0.00 57 1028.1
20260906120018 9 34 1.6 4.8 0.00 0.00 0.00 57 1028.1
20260906115507 9 34 1.6 4.8 0.00 0.00 0.00 56 1028.1
20260906115007 9 5 1.6 4.8 0.00 0.00 0.00 56 1028.2
20260906114534 9 45 3.2 4.8 0.00 0.00 0.00 55 1028.2
20260906114008 9 9 1.6 3.2 0.00 0.00 0.00 55 1028.2
20260906113510 9 5 0.0 3.2 0.00 0.00 0.00 55 1028.2
20260906113020 9 5 1.6 3.2 0.00 0.00 0.00 55 1028.1
20260906112510 8 5 1.6 3.2 0.00 0.00 0.00 55 1028.2
20260906112008 8 9 1.6 3.2 0.00 0.00 0.00 55 1028.2
20260906111517 8 339 1.6 3.2 0.00 0.00 0.00 56 1028.1
20260906111003 9 311 0.0 3.2 0.00 0.00 0.00 56 1028.1
20260906110507 9 23 0.0 4.8 0.00 0.00 0.00 55 1028.1
20260906110016 9 350 1.6 4.8 0.00 0.00 0.00 55 1028.1
20260906105509 9 333 1.6 3.2 0.00 0.00 0.00 55 1028.1
20260906105007 9 5 0.0 3.2 0.00 0.00 0.00 54 1028.1
20260906104522 10 30 1.6 3.2 0.00 0.00 0.00 54 1028.1
20260906104008 10 328 0.0 3.2 0.00 0.00 0.00 52 1028.1
20260906103508 10 315 0.0 4.8 0.00 0.00 0.00 52 1028.1
20260906103026 10 333 1.6 6.4 0.00 0.00 0.00 51 1028.0
20260906102508 10 333 3.2 6.4 0.00 0.00 0.00 50 1027.9
20260906102012 10 339 3.2 6.4 0.00 0.00 0.00 50 1028.0
20260906101524 10 352 1.6 6.4 0.00 0.00 0.00 50 1028.0
20260906101015 10 341 3.2 3.2 0.00 0.00 0.00 49 1028.0
20260906100504 10 23 1.6 3.2 0.00 0.00 0.00 50 1028.1
20260906100010 10 352 1.6 4.8 0.00 0.00 0.00 50 1028.1
20260906095508 10 5 1.6 4.8 0.00 0.00 0.00 50 1028.1
20260906095005 10 360 1.6 4.8 0.00 0.00 0.00 49 1028.0
20260906094516 10 352 1.6 4.8 0.00 0.00 0.00 49 1027.9
20260906094008 10 17 1.6 3.2 0.00 0.00 0.00 48 1027.9
20260906093508 10 32 0.0 8.0 0.00 0.00 0.00 47 1028.0
20260906093026 10 9 0.0 8.0 0.00 0.00 0.00 49 1028.0
20260906092512 10 42 3.2 6.4 0.00 0.00 0.00 47 1028.0
20260906092011 10 352 3.2 6.4 0.00 0.00 0.00 46 1028.1
20260906091532 10 12 3.2 6.4 0.00 0.00 0.00 47 1028.1
20260906091011 10 31 3.2 6.4 0.00 0.00 0.00 47 1028.0
20260906090511 10 351 1.6 6.4 0.00 0.00 0.00 47 1028.0
20260906090025 10 349 4.8 12.9 0.00 0.00 0.00 46 1028.0
20260906085511 10 352 3.2 12.9 0.00 0.00 0.00 47 1028.0
20260906085004 10 5 4.8 8.0 0.00 0.00 0.00 46 1028.1
20260906084512 10 360 1.6 4.8 0.00 0.00 0.00 47 1028.2
20260906084009 10 352 3.2 4.8 0.00 0.00 0.00 47 1028.2
20260906083506 10 35 1.6 4.8 0.00 0.00 0.00 47 1028.3
20260906083020 10 55 1.6 4.8 0.00 0.00 0.00 49 1028.3
20260906082510 10 5 1.6 4.8 0.00 0.00 0.00 49 1028.4
20260906082013 10 53 3.2 4.8 0.00 0.00 0.00 52 1028.3
20260906081534 10 65 3.2 9.7 0.00 0.00 0.00 50 1028.4
20260906081013 10 40 3.2 9.7 0.00 0.00 0.00 51 1028.5
20260906080513 11 334 1.6 8.0 0.00 0.00 0.00 48 1028.4
20260906080031 11 39 1.6 4.8 0.00 0.00 0.00 47 1028.5
20260906075512 11 340 1.6 4.8 0.00 0.00 0.00 47 1028.5
20260906075016 11 67 3.2 4.8 0.00 0.00 0.00 47 1028.4
20260906074527 11 303 1.6 3.2 0.00 0.00 0.00 48 1028.4
20260906074016 11 41 1.6 6.4 0.00 0.00 0.00 48 1028.4
20260906073503 10 20 1.6 8.0 0.00 0.00 0.00 48 1028.4
20260906073019 10 58 1.6 8.0 0.00 0.00 0.00 49 1028.3
20260906072508 10 17 1.6 9.7 0.00 0.00 0.00 50 1028.4
20260906072010 10 25 1.6 9.7 0.00 0.00 0.00 53 1028.4
20260906071531 10 352 0.0 4.8 0.00 0.00 0.00 51 1028.4
20260906071015 10 352 1.6 8.0 0.00 0.00 0.00 52 1028.4
20260906070514 10 260 3.2 9.7 0.00 0.00 0.00 52 1028.4
20260906070030 10 61 4.8 9.7 0.00 0.00 0.00 53 1028.4
20260906065515 10 72 1.6 9.7 0.00 0.00 0.00 53 1028.4
20260906065012 10 294 1.6 9.7 0.00 0.00 0.00 54 1028.3
20260906064531 10 39 1.6 6.4 0.00 0.00 0.00 54 1028.4
20260906064014 10 46 3.2 6.4 0.00 0.00 0.00 55 1028.5
20260906063511 10 336 1.6 6.4 0.00 0.00 0.00 55 1028.6
20260906063031 10 39 1.6 4.8 0.00 0.00 0.00 54 1028.7
20260906062515 10 43 3.2 4.8 0.00 0.00 0.00 54 1028.6
20260906062008 10 53 3.2 4.8 0.00 0.00 0.00 54 1028.5
20260906061522 11 51 0.0 4.8 0.00 0.00 0.00 54 1028.4
20260906061011 11 56 3.2 6.4 0.00 0.00 0.00 53 1028.3
20260906060513 11 9 1.6 8.0 0.00 0.00 0.00 54 1028.4
20260906060024 11 12 1.6 6.4 0.00 0.00 0.00 54 1028.5
20260906055513 11 11 0.0 9.7 0.00 0.00 0.00 54 1028.5
20260906055018 11 360 4.8 9.7 0.00 0.00 0.00 54 1028.4
20260906054530 11 340 1.6 6.4 0.00 0.00 0.00 54 1028.5
20260906054016 11 36 3.2 6.4 0.00 0.00 0.00 54 1028.5
20260906053518 11 46 3.2 6.4 0.00 0.00 0.00 55 1028.6
20260906053032 11 347 3.2 6.4 0.00 0.00 0.00 54 1028.6
20260906052517 11 352 3.2 6.4 0.00 0.00 0.00 54 1028.5
20260906052014 11 352 1.6 4.8 0.00 0.00 0.00 54 1028.6
20260906051534 11 344 3.2 4.8 0.00 0.00 0.00 55 1028.5
20260906051015 11 352 1.6 4.8 0.00 0.00 0.00 56 1028.5
20260906050507 11 47 3.2 6.4 0.00 0.00 0.00 57 1028.5
20260906050023 11 281 1.6 6.4 0.00 0.00 0.00 57 1028.6
20260906045516 11 318 0.0 6.4 0.00 0.00 0.00 57 1028.5
20260906045015 11 360 3.2 4.8 0.00 0.00 0.00 58 1028.6
20260906044528 11 44 3.2 4.8 0.00 0.00 0.00 58 1028.6
20260906044016 11 29 1.6 3.2 0.00 0.00 0.00 58 1028.7
20260906043518 11 292 1.6 4.8 0.00 0.00 0.00 57 1028.7
20260906043038 11 292 0.0 4.8 0.00 0.00 0.00 56 1028.8
20260906042515 12 65 3.2 4.8 0.00 0.00 0.00 56 1028.7
20260906042016 12 14 1.6 4.8 0.00 0.00 0.00 56 1028.7
20260906041536 12 69 3.2 4.8 0.00 0.00 0.00 55 1028.7
20260906041018 12 342 0.0 4.8 0.00 0.00 0.00 55 1028.7
20260906040517 12 338 1.6 3.2 0.00 0.00 0.00 54 1028.7
20260906040037 12 304 1.6 3.2 0.00 0.00 0.00 54 1028.8
20260906035519 12 360 0.0 3.2 0.00 0.00 0.00 53 1028.7
20260906035010 12 13 1.6 3.2 0.00 0.00 0.00 53 1028.8
20260906034529 13 342 1.6 4.8 0.00 0.00 0.00 52 1028.8
20260906034012 13 28 1.6 8.0 0.00 0.00 0.00 52 1028.5
20260906033511 13 360 3.2 8.0 0.00 0.00 0.00 51 1028.5
20260906033030 13 342 4.8 8.0 0.00 0.00 0.00 50 1028.6
20260906032515 13 352 4.8 8.0 0.00 0.00 0.00 50 1028.9
20260906032021 13 352 1.6 6.4 0.00 0.00 0.00 49 1028.8
20260906031558 14 5 1.6 4.8 0.00 0.00 0.00 48 1028.6
20260906031015 14 345 1.6 4.8 0.00 0.00 0.00 48 1028.6
20260906030515 15 13 1.6 3.2 0.00 0.00 0.00 47 1028.4
20260906030031 15 5 1.6 3.2 0.00 0.00 0.00 46 1028.4
20260906025517 15 351 1.6 3.2 0.00 0.00 0.00 45 1028.3
20260906025016 16 18 1.6 4.8 0.00 0.00 0.00 44 1028.2
20260906024542 16 352 1.6 6.4 0.00 0.00 0.00 43 1028.2
20260906024010 16 341 1.6 6.4 0.00 0.00 0.00 43 1028.3
20260906023514 16 22 1.6 6.4 0.00 0.00 0.00 41 1028.3
20260906023029 17 312 1.6 12.9 0.00 0.00 0.00 42 1028.2
20260906022518 17 336 3.2 22.5 0.00 0.00 0.00 42 1028.1
20260906022014 17 277 11.3 22.5 0.00 0.00 0.00 41 1028.0
20260906021532 17 304 4.8 14.5 0.00 0.00 0.00 41 1028.0
20260906021022 17 269 6.4 14.5 0.00 0.00 0.00 40 1028.0
20260906020516 17 313 4.8 14.5 0.00 0.00 0.00 40 1028.0
20260906020045 17 265 6.4 12.9 0.00 0.00 0.00 39 1027.8
20260906015515 18 292 8.0 16.1 0.00 0.00 0.00 39 1027.8
20260906015019 18 270 8.0 16.1 0.00 0.00 0.00 39 1027.9
20260906014534 18 261 8.0 16.1 0.00 0.00 0.00 38 1027.9
20260906014021 18 265 8.0 16.1 0.00 0.00 0.00 38 1027.9
20260906013519 18 279 8.0 16.1 0.00 0.00 0.00 38 1027.9
20260906013034 19 267 9.7 16.1 0.00 0.00 0.00 38 1027.8
20260906012513 20 277 6.4 14.5 0.00 0.00 0.00 37 1027.8
20260906012017 20 282 6.4 16.1 0.00 0.00 0.00 36 1027.7
20260906011528 20 284 6.4 17.7 0.00 0.00 0.00 37 1027.7
20260906011013 20 261 9.7 20.9 0.00 0.00 0.00 36 1027.6
20260906010513 21 261 8.0 20.9 0.00 0.00 0.00 36 1027.7
20260906010035 21 252 11.3 17.7 0.00 0.00 0.00 35 1027.7
20260906005517 21 260 8.0 12.9 0.00 0.00 0.00 35 1027.8
20260906005016 21 266 4.8 12.9 0.00 0.00 0.00 34 1027.8
20260906004536 21 261 4.8 17.7 0.00 0.00 0.00 35 1027.8
20260906004017 21 258 9.7 19.3 0.00 0.00 0.00 34 1027.7
20260906003515 21 263 12.9 19.3 0.00 0.00 0.00 33 1027.7
20260906003033 21 252 6.4 16.1 0.00 0.00 0.00 34 1027.7
20260906002515 21 244 9.7 16.1 0.00 0.00 0.00 34 1027.7
20260906002016 21 238 8.0 14.5 0.00 0.00 0.00 34 1027.7
20260906001539 22 251 9.7 14.5 0.00 0.00 0.00 33 1027.7
20260906001020 22 285 8.0 14.5 0.00 0.00 0.00 32 1027.6
20260906000515 22 316 8.0 19.3 0.00 0.00 0.00 33 1027.6
20260906000032 22 265 8.0 22.5 0.00 0.00 0.00 33 1027.6
20260905235515 22 269 12.9 22.5 0.00 0.00 0.00 33 1027.6
20260905235019 22 275 8.0 16.1 0.00 0.00 0.00 33 1027.5
20260905234534 22 254 11.3 17.7 0.00 0.00 0.00 33 1027.6
20260905234019 22 182 9.7 17.7 0.00 0.00 0.00 33 1027.6